Date String (YYYY-MM-DD hh:mm:ss) UTC,Instrument flags,Ambient pressure (hPa),Sample flow (lpm),Bypass flow (lpm),Sample temperature (°C),Ambient temperature (°C),ASC tube jacket temperature (°C),LED temperature (°C),Box temperature (°C),Sample RH (%),Span deviation,Mass concentration (μg/m³),Mass concentration (μg/m³),Mass concentration (μg/m³)
DateTimeUTC,F1_M11,P_M11,Q1_M11,Q2_M11,T1_M11,T2_M11,T3_M11,T4_M11,T5_M11,U1_M11,ZSPAN_M11,X0_M11,X2_M11,X1_M11
2021-10-18 21:00:00,,0819.0,5.00,0.00,29.8,28.2,00.0,38.8,31.6,09.8,0000.0,0009.95,0003.34,0002.18
2021-10-18 21:01:00,,0818.9,5.01,0.00,29.8,28.5,00.0,38.8,31.7,09.7,0000.0,0011.10,0003.36,0002.20
2021-10-18 21:02:00,,0819.0,5.00,0.00,29.9,28.8,00.0,38.8,31.7,09.7,0000.0,0011.40,0003.39,0002.20
2021-10-18 21:03:00,,0819.0,5.01,0.00,29.9,28.9,00.0,38.9,31.8,09.7,0000.0,0011.61,0003.41,0002.20
2021-10-18 21:04:00,,0818.9,4.99,0.00,30.0,29.1,00.0,38.9,31.9,09.7,0000.0,0011.77,0003.44,0002.21
2021-10-18 21:05:00,,0818.9,5.00,0.00,30.0,29.2,00.0,38.9,31.9,09.7,0000.0,0011.60,0003.46,0002.23
2021-10-18 21:06:00,,0818.8,4.99,0.00,30.0,28.3,00.0,38.9,31.7,09.7,0000.0,0010.81,0003.45,0002.24
2021-10-18 21:07:00,,0818.9,5.00,0.00,29.9,26.2,00.0,38.9,31.1,09.6,0000.0,0010.49,0003.46,0002.26
2021-10-18 21:08:00,,0818.9,5.00,0.00,29.7,25.8,00.0,38.9,30.9,09.6,0000.0,0010.25,0003.44,0002.28
2021-10-18 21:09:00,,0818.8,5.00,0.00,29.6,26.2,00.0,38.8,31.0,09.7,0000.0,0009.98,0003.47,0002.29
2021-10-18 21:10:00,,0818.9,5.00,0.00,29.6,26.7,00.0,38.8,31.1,09.7,0000.0,0009.82,0003.45,0002.31
2021-10-18 21:11:00,,0818.8,5.00,0.00,29.6,27.2,00.0,38.8,31.2,09.7,0000.0,0010.07,0003.44,0002.32
2021-10-18 21:12:00,,0818.8,4.99,0.00,29.6,27.6,00.0,38.7,31.3,09.7,0000.0,0009.05,0003.43,0002.32
2021-10-18 21:13:00,,0818.8,5.01,0.00,29.6,28.0,00.0,38.7,31.4,09.7,0000.0,0008.98,0003.43,0002.34
2021-10-18 21:14:00,,0818.8,4.99,0.00,29.7,28.3,00.0,38.7,31.5,09.7,0000.0,0008.82,0003.39,0002.34
2021-10-18 21:15:00,,0818.8,5.00,0.00,29.7,28.6,00.0,38.7,31.6,09.7,0000.0,0008.85,0003.39,0002.35
2021-10-18 21:16:00,,0818.7,5.00,0.00,29.8,28.8,00.0,38.8,31.7,09.6,0000.0,0008.94,0003.39,0002.35
2021-10-18 21:17:00,,0818.7,5.00,0.00,29.8,28.9,00.0,38.8,31.7,09.6,0000.0,0009.44,0003.38,0002.36
2021-10-18 21:18:00,,0818.8,5.01,0.00,29.9,29.1,00.0,38.8,31.8,09.5,0000.0,0009.96,0003.44,0002.37
2021-10-18 21:19:00,,0818.8,4.99,0.00,29.9,29.2,00.0,38.8,31.9,09.5,0000.0,0009.80,0003.44,0002.39
2021-10-18 21:20:00,,0818.8,5.00,0.00,30.0,29.3,00.0,38.9,31.9,09.5,0000.0,0009.81,0003.45,0002.41
2021-10-18 21:21:00,,0818.7,5.00,0.00,30.1,29.4,00.0,38.9,32.0,09.5,0000.0,0009.59,0003.44,0002.41
2021-10-18 21:22:00,,0818.7,4.99,0.00,30.1,29.3,00.0,38.9,32.0,09.6,0000.0,0009.06,0003.43,0002.42
2021-10-18 21:23:00,,0818.7,5.01,0.00,30.0,27.4,00.0,38.9,31.4,09.6,0000.0,0008.91,0003.44,0002.43
2021-10-18 21:24:00,,0818.7,4.99,0.00,29.8,25.9,00.0,38.9,31.0,09.5,0000.0,0009.47,0003.45,0002.44
2021-10-18 21:25:00,,0818.7,5.01,0.00,29.7,26.1,00.0,38.9,31.0,09.5,0000.0,0009.63,0003.45,0002.46
2021-10-18 21:26:00,,0818.7,5.01,0.00,29.7,26.5,00.0,38.8,31.2,09.6,0000.0,0010.61,0003.45,0002.47
2021-10-18 21:27:00,,0818.7,4.99,0.00,29.7,27.1,00.0,38.8,31.3,09.7,0000.0,0010.79,0003.50,0002.49
2021-10-18 21:28:00,,0818.7,5.01,0.00,29.7,27.5,00.0,38.8,31.4,09.7,0000.0,0011.18,0003.55,0002.50
2021-10-18 21:29:00,,0818.7,5.00,0.00,29.7,27.9,00.0,38.8,31.5,09.7,0000.0,0011.74,0003.50,0002.51
2021-10-18 21:30:00,,0818.7,4.99,0.00,29.7,28.2,00.0,38.8,31.5,09.7,0000.0,0012.40,0003.54,0002.52
2021-10-18 21:31:00,,0818.6,5.02,0.00,29.8,28.5,00.0,38.8,31.6,09.6,0000.0,0012.78,0003.58,0002.55
2021-10-18 21:32:00,,0818.7,4.99,0.00,29.8,28.7,00.0,38.8,31.7,09.7,0000.0,0013.49,0003.60,0002.60
2021-10-18 21:33:00,,0818.7,5.00,0.00,29.9,28.9,00.0,38.8,31.8,09.5,0000.0,0014.13,0003.66,0002.66
2021-10-18 21:34:00,,0818.7,5.00,0.00,29.9,29.0,00.0,38.8,31.8,09.4,0000.0,0014.62,0003.70,0002.74
2021-10-18 21:35:00,,0818.7,5.00,0.00,30.0,29.2,00.0,38.9,31.9,09.4,0000.0,0014.51,0003.70,0002.79
2021-10-18 21:36:00,,0818.7,5.01,0.00,30.0,29.3,00.0,38.9,32.0,09.4,0000.0,0014.13,0003.74,0002.86
2021-10-18 21:37:00,,0818.7,5.00,0.00,30.1,29.4,00.0,38.9,32.0,09.3,0000.0,0013.37,0003.80,0002.92
2021-10-18 21:38:00,,0818.6,4.99,0.00,30.1,28.5,00.0,38.9,31.8,09.3,0000.0,0012.92,0003.78,0002.98
2021-10-18 21:39:00,,0818.5,5.01,0.00,29.9,26.4,00.0,38.9,31.1,09.4,0000.0,0012.88,0003.80,0003.05
2021-10-18 21:40:00,,0818.5,5.00,0.00,29.7,26.0,00.0,38.9,31.0,09.6,0000.0,0012.00,0003.86,0003.10
2021-10-18 21:41:00,,0818.5,5.01,0.00,29.7,26.4,00.0,38.9,31.2,09.6,0000.0,0011.28,0003.87,0003.15
2021-10-18 21:42:00,,0818.5,5.00,0.00,29.7,26.9,00.0,38.8,31.2,09.5,0000.0,0010.81,0003.88,0003.20
2021-10-18 21:43:00,,0818.5,4.99,0.00,29.6,27.4,00.0,38.8,31.3,09.5,0000.0,0010.25,0003.92,0003.26
2021-10-18 21:44:00,,0818.4,5.01,0.00,29.7,27.8,00.0,38.8,31.4,09.5,0000.0,0009.67,0003.97,0003.30
2021-10-18 21:45:00,,0818.4,5.00,0.00,29.7,28.2,00.0,38.8,31.5,09.5,0000.0,0009.95,0004.06,0003.35
2021-10-18 21:46:00,,0818.4,4.98,0.00,29.8,28.5,00.0,38.8,31.6,09.4,0000.0,0009.52,0004.14,0003.40
2021-10-18 21:47:00,,0818.4,5.01,0.00,29.8,28.7,00.0,38.8,31.7,09.5,0000.0,0009.75,0004.24,0003.45
2021-10-18 21:48:00,,0818.4,5.01,0.00,29.9,28.9,00.0,38.8,31.8,09.4,0000.0,0010.02,0004.30,0003.51
2021-10-18 21:49:00,,0818.4,5.01,0.00,29.9,29.1,00.0,38.8,31.9,09.5,0000.0,0010.20,0004.37,0003.55
2021-10-18 21:50:00,,0818.4,4.99,0.00,30.0,29.2,00.0,38.9,31.9,09.4,0000.0,0009.66,0004.41,0003.62
2021-10-18 21:51:00,,0818.4,4.99,0.00,30.0,28.9,00.0,38.9,31.9,09.3,0000.0,0009.38,0004.48,0003.70
2021-10-18 21:52:00,,0818.4,5.00,0.00,29.9,26.9,00.0,38.9,31.3,09.5,0000.0,0009.86,0004.61,0003.77
2021-10-18 21:53:00,,0818.4,5.00,0.00,29.7,25.8,00.0,38.9,31.0,09.5,0000.0,0010.72,0004.72,0003.84
2021-10-18 21:54:00,,0818.4,5.01,0.00,29.6,26.1,00.0,38.8,31.0,09.4,0000.0,0011.68,0004.82,0003.91
2021-10-18 21:55:00,,0818.4,4.99,0.00,29.6,26.6,00.0,38.8,31.1,09.4,0000.0,0012.80,0004.90,0003.98
2021-10-18 21:56:00,,0818.4,5.00,0.00,29.6,27.1,00.0,38.8,31.2,09.5,0000.0,0012.62,0004.94,0004.05
2021-10-18 21:57:00,,0818.4,5.01,0.00,29.6,27.5,00.0,38.7,31.3,09.6,0000.0,0012.61,0004.99,0004.11
2021-10-18 21:58:00,,0818.4,5.00,0.00,29.6,27.9,00.0,38.7,31.4,09.5,0000.0,0012.91,0005.06,0004.21
2021-10-18 21:59:00,,0818.4,4.99,0.00,29.7,28.2,00.0,38.7,31.5,09.4,0000.0,0013.32,0005.16,0004.30
